User: anonymous   Login
Location: Holyhead Bay
(53.3667°N, 4.6667°W)
Time: 07:50:27
(UTC+00:00)
Language:

POPSAT HIP 1 - Orbit

View from above orbital plane
View from above orbital plane
View from above satellite
View from above satellite

Ground track
Ground track

The orbit data is extracted from the following two-line orbital elements,

1 40028U 14033U   21166.79422389  .00000611  00000-0  70457-4 0  9990
2 40028  97.9413  98.4241 0013485 178.4217 181.7054 14.89254088379653
Epoch (UTC): 15 June 2021 19:03:40
Eccentricity: 0.0013485
inclination: 97.9413°
perigee height: 591 km
apogee height: 609 km
right ascension of ascending node: 98.4241°
argument of perigee: 178.4217°
revolutions per day: 14.89254088
mean anomaly at epoch: 181.7054°
orbit number at epoch: 37965

The dashed part of the orbit path shows where the satellite is in the earth's shadow,  

DLR